[Iaude] MPEC M84: 2016 RO100 [a=51.13,e=0.28,i=6.6,H=9.32]
    mpec at cfa.harvard.edu 
    mpec at cfa.harvard.edu
       
    Thu Jun 27 03:49:13 EDT 2024
    
    
  
M.P.E.C. 2024-M84                                 Issued 2024 June 27, 07:47 UT
     The Minor Planet Electronic Circulars contain information on unusual
         minor planets, routine data on comets and natural satellites,
         and occasional editorial announcements.  They are published
    on behalf of Division F of the International Astronomical Union by the
          Minor Planet Center, Smithsonian Astrophysical Observatory,
                          Cambridge, MA 02138, U.S.A.
			  
             Prepared using the Tamkin Foundation Computer Network
                              MPC at CFA.HARVARD.EDU
            URL https://www.minorplanetcenter.net/    ISSN 1523-6714
                                   2016 RO100                                   
Additional Observations:
     K16RA0O 1C2017 06 24.57446523 36 22.22 +02 51 29.2                WEM084T09
     K16RA0O 4C2019 09 27.25121 23 44 13.44 +04 09 58.4          25.3 g1EM084T09
     K16RA0O 4C2019 09 27.27214 23 44 13.32 +04 09 57.9          25.4 g1EM084T09
     K16RA0O 1C2019 09 27.28895423 44 13.26 +04 09 57.0                WEM084T09
     K16RA0O 4C2019 09 27.47425 23 44 12.33 +04 09 51.3          24.8 g1EM084T09
     K16RA0O 4C2019 09 27.48691 23 44 12.27 +04 09 51.0          25.4 g1EM084T09
Observer details:
T09 Subaru Telescope, Maunakea.  Observers , H. Aihara, Y. AlSayyad, M. Ando,
    R. Armstrong, J. Bosch, E. Egami, H. Furusawa, J. Furusawa, S. Harasawa,
    Y. Harikane, B.-C. Hsieh, H. Ikeda, K. Ito, I. Iwata, T. Kodama, M. Koike,
    M. Kokubo, Y. Komiyama, X. Li, Y. Liang, Y.-T. Lin, R. H. Lupton, N. B.
    Lust, L. A. MacArthur, K. Mawatari, S. Mineo, H. Miyatake, S. Miyazaki, S.
    More, T. Morishima, H. Murayama, K. Nakajima, F. Nakata, A. J. Nishizawa,
    M. Oguri, N. Okabe, Y. Okura, Y. Ono, K. Osato, M. Ouchi, Y.-C. Pan, A. A.
    Plazas Malagon, P. A. Price, S. L. Reed, E. S. Rykoff, T. Shibuya, M.
    Simunovic, M. A. Strauss, K. Sugimori, Y. Suto, N. Suzuki, M. Takada, Y.
    Takagi, T. Takata, S. Takita, M. Tanaka, S. Tang, D. S. Taranu, T. Terai,
    Y. Toba, E. L. Turner, H. Uchiyama, B. Vijarnwannaluk, C. Z. Waters, Y.
    Yamada, N. Yamamoto, T. Yamashita.  Measurers S. Deen, M. Yoshimi.  8.3-m
    Subaru Telescope + CCD, 8.2-m f/2.0 reflector + CCD(HSC).
Orbital elements:
2016 RO100                                                                      
Epoch 2024 Mar. 31.0 TT = JDT 2460400.5                 Alexandersen            
M 357.08575              (2000.0)            P               Q                  
n   0.00269598     Peri.   66.14833     +0.97358974     -0.20835782             
a  51.1278812      Node   305.75029     +0.14407844     +0.87783394             
e   0.2787360      Incl.    6.60341     +0.17710004     +0.43127091             
P 366              H    9.32          G   0.15           U   6                  
Residuals in seconds of arc
160801 T09  0.1+  0.0     160828 T09  0.3+  0.1-    160907 T09  0.1+  0.1+
160801 T09  0.2-  0.3-    160828 T09  0.0   0.1+    160907 T09  0.1-  0.1+
160801 T09  0.2+  0.1+    160905 T09  0.1-  0.0     170624 T09  0.0   0.0
160801 T09  0.0   0.1-    160905 T09  0.1+  0.1-    190927 T09  0.0   0.0
160801 T09  0.2+  0.0     160905 T09  0.0   0.2+    190927 T09  0.2-  0.2+
160801 T09  0.1-  0.1-    160907 T09  0.1-  0.0     190927 T09  0.1+  0.2-
160828 T09  0.1-  0.0     160907 T09  0.1-  0.1-    190927 T09  0.0   0.1-
160828 T09  0.0   0.0     160907 T09  0.1+  0.1+    190927 T09  0.0   0.0
Ephemeris:
2016 RO100               a,e,i = 51.13, 0.28, 7                  q = 36.8767
Date    TT    R. A. (2000) Decl.     Delta      r    Elong.  Phase     V
2024 05 28    00 20 19.0 +08 24 15  37.4201 36.9084    59.0     1.3    25.2
...
2024 06 12    00 21 07.7 +08 32 03  37.1908 36.9075    73.0     1.5    25.2
...
2024 06 20    00 21 25.2 +08 35 23  37.0601 36.9070    80.6     1.6    25.2
...
2024 06 26    00 21 34.3 +08 37 30  36.9600 36.9066    86.2     1.6    25.2
2024 06 27    00 21 35.5 +08 37 49  36.9432 36.9066    87.1     1.6    25.2
2024 06 28    00 21 36.6 +08 38 07  36.9264 36.9065    88.1     1.6    25.2
...
2024 07 04    00 21 41.0 +08 39 44  36.8257 36.9061    93.8     1.6    25.2
...
2024 07 12    00 21 41.4 +08 41 18  36.6925 36.9056   101.3     1.5    25.2
...
2024 07 27    00 21 25.6 +08 42 22  36.4544 36.9048   115.6     1.4    25.2
M. P. C. Staff               (C) Copyright 2024 MPC           M.P.E.C. 2024-M84
    
    
More information about the Iaude
mailing list